SCP
0 0 0 0 0 0 0 0 0 0 0 0 0 0 0 0 0 0 0 0 -0 0 0 0 -0 -0 -0 -0 -0 -0 -0 -0
0 0 0 0 0 0 0 0 0 0 0 0 0 0 0 0 0 0 0 0 0 0 0 0 0 0 0 -0 -0 -0 -0 -0
0 0 0 0 0 0 0 0 0 0 0 0 0 0 0 0 0 0 0 0 0 0 0 0 0 0 0 0 0 -0 0 0
0 0 0 0 0 0 0 0 0 0 0 0 0 0 0 -0 -0 -0 0 0 0 1 1 1 1 0 0 0 0 0 -0 -0
0 0 0 0 0 0 0 0 0 0 0 0 0 0 0 0 -0 -0 0 0 1 0 0 1 1 1 0 0 0 0 -0 -0
0 0 0 0 0 0 0 0 0 0 0 0 0 0 0 0 0 0 0 0 0 0 0 0 0 1 0 0 0 0 -0 -0
0 0 0 0 0 0 0 0 0 0 0 0 0 0 0 0 0 0 0 0 0 0 0 0 0 0 1 0 0 0 0 -0
0 0 0 0 0 0 0 0 0 0 0 0 0 0 0 0 0 0 0 0 0 0 0 0 0 0 0 0 0 0 0 -0
0 0 0 0 0 0 0 0 0 0 0 0 0 0 0 0 0 0 0 0 0 1 1 0 0 1 1 0 0 0 0 0
0 0 0 0 0 0 0 0 0 0 0 0 0 0 0 0 0 0 1 1 1 1 2 2 1 1 1 1 1 1 0 0
0 0 0 0 0 0 0 0 0 0 0 0 0 0 0 0 0 1 1 1 1 1 2 2 2 2 2 1 1 1 1 1
0 0 0 0 0 0 0 0 0 0 0 0 0 0 0 0 0 0 1 1 1 1 2 2 2 2 2 2 1 2 1 2
0 0 0 0 0 0 0 0 0 0 0 0 0 0 0 0 0 0 0 0 1 1 1 2 3 2 3 2 2 2 2 4
0 0 0 0 0 0 0 0 0 0 0 0 0 0 0 0 0 0 0 0 0 0 1 1 1 2 2 2 2 2 2 2
0 0 0 0 0 0 0 0 0 0 0 0 0 0 0 0 0 0 0 0 0 0 1 1 1 1 1 2 2 2 2 3
0 0 0 0 0 0 0 0 0 0 0 0 0 0 0 0 0 0 0 0 0 0 2 1 2 2 2 2 2 2 2 2
0 0 0 0 0 0 0 0 0 0 0 0 0 0 0 0 0 0 0 0 0 0 2 3 4 4 3 3 3 3 3 2
0 0 0 0 0 0 0 0 0 0 0 0 0 0 0 0 0 0 0 0 0 0 1 2 3 4 4 4 3 3 3 4
0 0 0 0 0 0 0 0 0 0 0 0 0 0 0 0 0 0 0 0 0 0 0 1 2 3 4 5 5 4 3 3
0 0 0 0 0 0 0 0 0 0 0 0 0 0 0 0 0 0 0 0 0 0 0 0 1 2 5 4 4 4 4 4
Wind_Speed_500mb
8 17 22 8 15 8 7 13 13 0 5 5 7 8 4 10 22 34 36 40 45 47 46 44 42 39 44 51 50 44 37 31
17 24 8 8 12 4 1 10 14 8 8 4 10 5 4 17 21 31 34 39 41 46 46 44 40 38 43 50 52 46 39 33
21 25 5 13 6 7 5 4 9 11 6 6 9 12 13 16 20 27 35 37 41 45 45 44 43 41 43 49 52 49 43 36
29 29 16 16 14 16 14 6 8 7 7 4 8 9 9 15 17 24 34 37 40 47 46 45 44 43 44 50 51 50 46 40
34 28 25 23 18 22 13 18 7 13 9 1 10 13 3 13 17 26 33 36 38 47 49 47 44 43 43 48 52 51 48 45
21 24 35 18 23 13 20 17 11 10 10 7 18 20 9 13 19 27 33 35 36 45 49 50 48 45 43 47 51 54 52 48
32 26 20 12 19 14 14 23 25 20 25 19 25 16 13 17 20 27 33 36 35 38 41 43 42 47 44 45 49 53 54 53
11 24 18 13 17 20 21 28 28 27 26 26 23 18 17 25 28 32 35 38 36 39 41 43 40 41 50 48 48 52 57 57
16 21 17 22 28 25 23 30 33 29 26 28 27 24 21 27 33 31 33 36 39 42 44 43 42 41 43 43 47 53 58 60
20 15 24 25 26 26 26 32 28 27 30 28 27 29 26 22 29 34 32 35 40 44 46 53 45 46 46 47 47 49 58 63
24 24 25 26 31 30 30 24 29 22 22 23 23 25 26 23 26 28 34 34 38 42 49 53 62 49 51 53 52 48 55 67
19 25 21 23 32 21 21 14 20 24 23 23 22 20 20 24 26 27 28 33 34 41 47 52 58 65 56 58 52 52 49 55
27 29 24 21 29 32 31 27 24 25 19 20 26 22 23 23 22 26 26 27 34 36 41 51 57 64 64 55 54 51 56 67
11 8 11 16 24 11 8 14 14 13 14 11 12 19 22 28 35 36 40 33 40 38 43 50 56 61 62 57 55 54 53 60
14 10 12 18 16 12 12 20 17 18 17 17 16 15 18 25 34 50 54 56 57 49 53 54 59 55 56 57 58 54 55 56
21 13 15 22 26 24 28 27 25 27 25 24 24 23 17 14 21 32 47 61 67 71 67 63 56 55 49 52 56 56 58 62
19 18 19 25 24 20 25 26 30 34 32 31 31 30 25 20 19 24 28 28 47 62 64 60 52 53 54 57 53 52 55 58
22 18 14 30 31 29 29 34 35 35 37 37 38 32 27 21 20 17 23 30 34 36 44 52 52 53 52 48 50 51 50 53
24 23 27 35 37 39 32 29 31 40 42 38 33 25 22 21 21 22 21 23 30 37 38 41 54 50 47 47 46 51 54 54
26 26 26 8 28 33 31 21 28 29 27 31 9 13 15 18 22 25 30 34 39 40 42 42 47 50 61 64 66 63 59 57
Wind_Direction_500mb
274 248 242 224 168 102 63 65 43 247 5 19 50 46 91 164 159 161 168 178 186 184 185 185 185 186 190 192 189 186 184 182
246 234 242 294 153 61 47 122 47 42 63 118 50 49 66 155 157 167 171 175 188 188 188 188 189 189 191 195 192 191 192 192
239 242 219 230 236 275 297 353 29 1 50 37 61 65 115 148 165 171 174 177 189 190 192 193 192 196 197 199 199 198 198 201
230 220 217 243 246 265 263 267 314 330 320 110 87 62 124 157 170 177 178 179 195 195 195 198 199 201 203 203 207 207 205 205
245 245 229 235 250 256 276 268 242 330 285 65 84 16 194 173 181 180 182 182 197 199 197 202 205 207 208 208 210 214 213 212
238 238 242 229 240 254 254 283 301 277 251 237 331 311 257 210 189 184 187 188 192 200 203 205 207 210 212 212 214 214 217 217
228 235 229 234 229 191 275 268 270 269 277 287 315 322 238 215 204 193 197 196 194 196 198 201 206 211 210 214 215 216 213 212
207 257 259 264 260 267 276 270 254 259 258 274 298 305 246 228 218 207 204 201 201 199 202 199 204 209 209 211 213 214 212 211
233 246 261 261 263 264 259 260 259 259 259 263 272 271 258 235 229 222 214 208 206 207 205 204 205 206 207 206 209 214 214 214
257 261 253 256 267 266 252 261 269 263 265 266 262 259 254 242 227 222 221 219 215 214 221 215 208 213 209 208 209 210 215 218
249 255 262 272 262 262 264 264 258 255 264 270 268 262 256 252 232 228 230 227 226 221 229 230 218 217 214 214 214 214 217 220
249 256 255 257 265 254 250 224 254 260 263 260 257 264 260 259 247 238 236 239 230 236 240 237 231 221 224 224 219 216 219 224
244 247 238 256 261 248 253 256 258 264 264 258 260 267 269 265 260 246 253 252 244 235 243 249 246 233 227 222 220 223 225 226
177 256 214 214 260 170 271 215 233 242 258 252 255 263 270 275 268 262 261 257 260 245 247 259 254 241 231 224 226 223 226 232
237 228 252 226 260 174 227 246 260 253 255 259 257 253 264 268 270 251 246 244 246 248 250 250 254 241 232 229 227 225 224 226
244 167 228 257 254 258 258 262 255 253 256 264 266 263 261 268 277 268 259 251 242 242 245 246 242 241 228 228 229 227 228 228
257 260 258 261 265 266 261 260 257 254 257 263 266 268 261 269 288 292 281 279 265 252 251 244 233 228 228 228 227 229 227 231
266 263 253 273 274 269 262 260 256 260 261 263 268 264 265 273 288 297 294 283 276 281 268 246 237 237 232 233 235 235 233 231
272 292 273 264 266 256 246 241 260 253 257 265 266 269 281 287 300 307 306 303 291 278 269 264 244 243 238 235 237 236 235 235
272 274 276 318 287 289 270 256 250 254 260 261 287 287 293 306 312 316 313 305 296 291 278 264 257 240 238 236 236 238 238 239
Wind_Speed_850mb
8 17 22 8 15 8 7 13 13 0 5 5 7 8 4 10 22 34 36 40 45 47 46 44 42 39 44 51 50 44 37 31
17 24 8 8 12 4 1 10 14 8 8 4 10 5 4 17 21 31 34 39 41 46 46 44 40 38 43 50 52 46 39 33
21 25 5 13 6 7 5 4 9 11 6 6 9 12 13 16 20 27 35 37 41 45 45 44 43 41 43 49 52 49 43 36
29 29 16 16 14 16 14 6 8 7 7 4 8 9 9 15 17 24 34 37 40 47 46 45 44 43 44 50 51 50 46 40
34 28 25 23 18 22 13 18 7 13 9 1 10 13 3 13 17 26 33 36 38 47 49 47 44 43 43 48 52 51 48 45
21 24 35 18 23 13 20 17 11 10 10 7 18 20 9 13 19 27 33 35 36 45 49 50 48 45 43 47 51 54 52 48
32 26 20 12 19 14 14 23 25 20 25 19 25 16 13 17 20 27 33 36 35 38 41 43 42 47 44 45 49 53 54 53
11 24 18 13 17 20 21 28 28 27 26 26 23 18 17 25 28 32 35 38 36 39 41 43 40 41 50 48 48 52 57 57
16 21 17 22 28 25 23 30 33 29 26 28 27 24 21 27 33 31 33 36 39 42 44 43 42 41 43 43 47 53 58 60
20 15 24 25 26 26 26 32 28 27 30 28 27 29 26 22 29 34 32 35 40 44 46 53 45 46 46 47 47 49 58 63
24 24 25 26 31 30 30 24 29 22 22 23 23 25 26 23 26 28 34 34 38 42 49 53 62 49 51 53 52 48 55 67
19 25 21 23 32 21 21 14 20 24 23 23 22 20 20 24 26 27 28 33 34 41 47 52 58 65 56 58 52 52 49 55
27 29 24 21 29 32 31 27 24 25 19 20 26 22 23 23 22 26 26 27 34 36 41 51 57 64 64 55 54 51 56 67
11 8 11 16 24 11 8 14 14 13 14 11 12 19 22 28 35 36 40 33 40 38 43 50 56 61 62 57 55 54 53 60
14 10 12 18 16 12 12 20 17 18 17 17 16 15 18 25 34 50 54 56 57 49 53 54 59 55 56 57 58 54 55 56
21 13 15 22 26 24 28 27 25 27 25 24 24 23 17 14 21 32 47 61 67 71 67 63 56 55 49 52 56 56 58 62
19 18 19 25 24 20 25 26 30 34 32 31 31 30 25 20 19 24 28 28 47 62 64 60 52 53 54 57 53 52 55 58
22 18 14 30 31 29 29 34 35 35 37 37 38 32 27 21 20 17 23 30 34 36 44 52 52 53 52 48 50 51 50 53
24 23 27 35 37 39 32 29 31 40 42 38 33 25 22 21 21 22 21 23 30 37 38 41 54 50 47 47 46 51 54 54
26 26 26 8 28 33 31 21 28 29 27 31 9 13 15 18 22 25 30 34 39 40 42 42 47 50 61 64 66 63 59 57
Wind_Direction_850mb
274 248 242 224 168 102 63 65 43 247 5 19 50 46 91 164 159 161 168 178 186 184 185 185 185 186 190 192 189 186 184 182
246 234 242 294 153 61 47 122 47 42 63 118 50 49 66 155 157 167 171 175 188 188 188 188 189 189 191 195 192 191 192 192
239 242 219 230 236 275 297 353 29 1 50 37 61 65 115 148 165 171 174 177 189 190 192 193 192 196 197 199 199 198 198 201
230 220 217 243 246 265 263 267 314 330 320 110 87 62 124 157 170 177 178 179 195 195 195 198 199 201 203 203 207 207 205 205
245 245 229 235 250 256 276 268 242 330 285 65 84 16 194 173 181 180 182 182 197 199 197 202 205 207 208 208 210 214 213 212
238 238 242 229 240 254 254 283 301 277 251 237 331 311 257 210 189 184 187 188 192 200 203 205 207 210 212 212 214 214 217 217
228 235 229 234 229 191 275 268 270 269 277 287 315 322 238 215 204 193 197 196 194 196 198 201 206 211 210 214 215 216 213 212
207 257 259 264 260 267 276 270 254 259 258 274 298 305 246 228 218 207 204 201 201 199 202 199 204 209 209 211 213 214 212 211
233 246 261 261 263 264 259 260 259 259 259 263 272 271 258 235 229 222 214 208 206 207 205 204 205 206 207 206 209 214 214 214
257 261 253 256 267 266 252 261 269 263 265 266 262 259 254 242 227 222 221 219 215 214 221 215 208 213 209 208 209 210 215 218
249 255 262 272 262 262 264 264 258 255 264 270 268 262 256 252 232 228 230 227 226 221 229 230 218 217 214 214 214 214 217 220
249 256 255 257 265 254 250 224 254 260 263 260 257 264 260 259 247 238 236 239 230 236 240 237 231 221 224 224 219 216 219 224
244 247 238 256 261 248 253 256 258 264 264 258 260 267 269 265 260 246 253 252 244 235 243 249 246 233 227 222 220 223 225 226
177 256 214 214 260 170 271 215 233 242 258 252 255 263 270 275 268 262 261 257 260 245 247 259 254 241 231 224 226 223 226 232
237 228 252 226 260 174 227 246 260 253 255 259 257 253 264 268 270 251 246 244 246 248 250 250 254 241 232 229 227 225 224 226
244 167 228 257 254 258 258 262 255 253 256 264 266 263 261 268 277 268 259 251 242 242 245 246 242 241 228 228 229 227 228 228
257 260 258 261 265 266 261 260 257 254 257 263 266 268 261 269 288 292 281 279 265 252 251 244 233 228 228 228 227 229 227 231
266 263 253 273 274 269 262 260 256 260 261 263 268 264 265 273 288 297 294 283 276 281 268 246 237 237 232 233 235 235 233 231
272 292 273 264 266 256 246 241 260 253 257 265 266 269 281 287 300 307 306 303 291 278 269 264 244 243 238 235 237 236 235 235
272 274 276 318 287 289 270 256 250 254 260 261 287 287 293 306 312 316 313 305 296 291 278 264 257 240 238 236 236 238 238 239